TOP > 外国特許検索

外国特許検索

Display results per page Option
Patent state
Country

Clear

Hits 4661 results

No. Application number
Gazette No
Country
Title
Release Date
Update Date
Information Provider
4501 2005JP012689 WO 2006/011348 世界知的所有権機関(WIPO) MOLECULE MEASURING DEVICE AND MOLECULE MEASURING METHOD 2009/01/09 2008/12/26 北海道大学
4502 2007JP070738 WO 2008/056541 世界知的所有権機関(WIPO) DIAGNOSTIC DEVICE, DIAGNOSTIC METHOD, PROGRAM, AND RECORDING MEDIUM 実績あり 2008/12/05 2011/05/25 九州工業大学
4503 2007JP068505 WO 2008/041537 世界知的所有権機関(WIPO) GENERATION DEVICE, GENERATION METHOD, PROGRAM AND RECORDING MEDIUM 実績あり 2008/12/05 2011/05/25 九州工業大学
4504 2007JP062929 WO 2008/001818 世界知的所有権機関(WIPO) CONVERSION DEVICE, CONVERSION METHOD, PROGRAM, AND RECORDING MEDIUM 実績あり 2008/12/05 2013/07/31 九州工業大学
4505 2007JP061010 WO 2008/047493 世界知的所有権機関(WIPO) REMOTE CONTROL SYSTEM 2008/11/27 2008/11/26 奈良先端科学技術大学院大学
4506 2007JP064679 WO 2008/013232 世界知的所有権機関(WIPO) SPHERICAL ABERRATION CORRECTION MODERATING TYPE LENS, SPHERICAL ABERRATION CORRECTION LENS SYSTEM, ELECTRON SPECTROSCOPY DEVICE, AND OPTICAL ELECTRON MICROSCOPE 2008/11/27 2008/11/26 奈良先端科学技術大学院大学
4507 2007JP055855 WO 2008/035468 世界知的所有権機関(WIPO) THIN NANODIAMOND FILM HAVING n-TYPE CONDUCTIVITY AND PROCESS FOR PRODUCING THE SAME 2008/11/27 2013/07/10 九州大学
4508 2007JP071236 WO 2008/053924 世界知的所有権機関(WIPO) METHOD OF CLASSIFYING PROTEIN/COMPOUND PAIRS 2008/11/27 2008/11/26 慶應義塾大学
4509 2007JP068481 WO 2008/032875 世界知的所有権機関(WIPO) PLATELET THROMBUS FORMATION SIMULATOR 2008/11/27 2008/11/26 慶應義塾大学
4510 2006JP317470 WO 2007/029652 世界知的所有権機関(WIPO) BLOOD-SUGAR MEASURING APPARATUS AND METHOD 新技術説明会 2008/10/31 2008/10/31 群馬大学
4511 2006JP306370 WO 2006/104176 世界知的所有権機関(WIPO) INSTANTANEOUS FLOW MEASURING INSTRUMENT OF GAS FUEL INJECTOR 新技術説明会 2008/10/31 2008/10/31 群馬大学
4512 2007JP052113 WO 2008/015800 世界知的所有権機関(WIPO) SPEECH PROCESSING METHOD, SPEECH PROCESSING PROGRAM, AND SPEECH PROCESSING DEVICE 新技術説明会 実績あり 2008/09/26 2009/01/15 奈良先端科学技術大学院大学
4513 2007JP053667 WO 2008/007475 世界知的所有権機関(WIPO) ACETYLTRANSFERASE Mpr1 MUTANT 2008/09/26 2009/01/15 奈良先端科学技術大学院大学
4514 2007JP058989 WO 2007/129585 世界知的所有権機関(WIPO) METHOD AND DEVICE FOR EVALUATING SOLAR CELL AND USE OF THE SOLAR CELL 実績あり 2008/09/26 2009/01/15 奈良先端科学技術大学院大学
4515 2007JP000401 WO 2007/129451 世界知的所有権機関(WIPO) IMAGE SENSOR 2008/09/26 2009/01/15 奈良先端科学技術大学院大学
4516 2007JP051689 WO 2007/088925 世界知的所有権機関(WIPO) FUEL BATTERY CELL, FUEL BATTERY UNIT, HEAT/POWER COGENERATION SYSTEM AND VEHICLE EQUIPPED WITH THE SYSTEM, AND METHOD OF ACTUATING FUEL BATTERY 2008/09/19 2008/12/18 立命館大学
4517 2007JP059366 WO 2007/126115 世界知的所有権機関(WIPO) PREVENTION APPARATUS AND PREVENTION SYSTEM OF OSTEOPOROTIC CHANGE 新技術説明会 2008/09/19 2008/11/06 鹿児島大学
4518 2007JP059350 WO 2007/126111 世界知的所有権機関(WIPO) PEPTIDE CAPABLE OF INHIBITING AMYLOID- FIBROSIS 2008/09/19 2008/11/06 鹿児島大学
4519 2007JP073788 WO 2008/078537 世界知的所有権機関(WIPO) JIGGLE MEASURING SYSTEM AND JIGGLE MEASURING METHOD 新技術説明会 2008/09/12 2008/11/06 電気通信大学
4520 2007JP051965 WO 2008/012957 世界知的所有権機関(WIPO) INFORMATION PROCESSING DEVICE AND METHOD, PROGRAM, AND RECORDING MEDIUM 2008/09/12 2008/12/18 電気通信大学
4521 2006JP323031 WO 2007/058326 世界知的所有権機関(WIPO) METHOD FOR DETECTING TARGET NUCLEIC ACID WITH SPECIFIC BASE SEQUENCE AND SET OF NUCLEIC ACIDS FOR DETECTION 新技術説明会 2008/09/12 2008/09/09 科学技術振興機構(JST)
4522 2007JP059168 WO 2007/126052 世界知的所有権機関(WIPO) FLUORESCENT COMPOUND AND LABELING AGENT COMPRISING THE SAME 2008/09/12 2008/09/09 慶應義塾大学
4523 2007JP067061 WO 2008/029744 世界知的所有権機関(WIPO) DIAMINE COMPOUND HAVING PHOSPHORYLCHOLINE GROUP, POLYMER THEREOF AND METHOD FOR PRODUCING THE SAME 新技術説明会 2008/09/12 2009/01/15 東海大学
4524 2007JP051003 WO 2007/086382 世界知的所有権機関(WIPO) TRANSGENIC NON-HUMAN MAMMAL CAPABLE OF RECURRING CONDITION OF HUMAN RHEUMATOID ARTHRITIS 新技術説明会 2008/09/12 2008/12/22 名古屋市立大学
4525 2007JP061784 WO 2007/145195 世界知的所有権機関(WIPO) ORGANIC ACID CATALYST FOR POLYLACTIC ACID SYNTHESIS 実績あり 2008/09/12 2008/12/18 京都工芸繊維大学
4526 2007JP055885 WO 2007/119488 世界知的所有権機関(WIPO) FREQUENCY MEASURING APPARATUS AND FREQUENCY MEASURING METHOD 2008/09/12 2009/01/29 群馬大学
4527 2007JP055957 WO 2007/111232 世界知的所有権機関(WIPO) PROCESS FOR PRODUCING GEL WITH LIQUID CRYSTAL STRUCTURE, AND GEL WITH LIQUID CRYSTAL STRUCTURE PRODUCED BY THE PROCESS 2008/09/12 2009/01/29 群馬大学
4528 2007JP059028 WO 2007/125982 世界知的所有権機関(WIPO) NOVEL CULTURED SILKWORM CELL ENABLING HIGHLY EFFICIENT BACULOVIRUS PRODUCTION AND PROTEIN PRODUCTION 2008/08/22 2008/08/21 九州大学
4529 2007JP053297 WO 2007/105450 世界知的所有権機関(WIPO) HEAT REMOVING METHOD AND HEAT REMOVING APPARATUS 2008/08/22 2008/08/21 九州大学
4530 2006JP324960 WO 2007/069692 世界知的所有権機関(WIPO) MONITORING OF INTRACELLULAR MITOCHONDRIAL LOCALIZATION 新技術説明会 2008/08/22 2008/08/21 九州大学
4531 2006JP320703 WO 2007/049487 世界知的所有権機関(WIPO) SUBSTRATE FOR ANALYSIS FOR USE IN RAMAN SPECTROSCOPIC ANALYSIS AND SUBSTRATE ASSEMBLY FOR ANALYSIS 2008/08/22 2008/08/21 九州大学
4532 2006JP312070 WO 2006/135026 世界知的所有権機関(WIPO) ADSORPTION REFRIGERATOR 2008/08/22 2008/08/21 九州大学
4533 2006JP307745 WO 2006/112327 世界知的所有権機関(WIPO) LK3 GENE REGULATING RICE GRAIN LENGTH AND THE USE THEREOF 2008/08/22 2008/08/21 九州大学
4534 2005JP009364 WO 2005/119210 世界知的所有権機関(WIPO) TEST CHIP HAVING LIGHT AMPLIFICATION ELEMENT MOUNTED THEREON 2008/08/22 2008/08/21 九州大学
4535 2007JP063091 WO 2008/001882 世界知的所有権機関(WIPO) MEDICAL HOLDER AND METHOD OF USING THE MEDICAL HOLDER 2008/08/08 2008/10/16 自治医科大学
4536 2007JP050013 WO 2007/122823 世界知的所有権機関(WIPO) TUMOR TARGET CELL CAPABLE OF PRODUCING VECTOR 2008/08/08 2008/10/16 自治医科大学
4537 2006JP323379 WO 2007/061022 世界知的所有権機関(WIPO) MITOCHONDRIAL FUNCTION OF PROHIBITIN 2 (PHB2) 2008/08/08 2008/10/16 自治医科大学
4538 2005JP023903 WO 2006/070805 世界知的所有権機関(WIPO) AIRWAY ESTABLISHMENT APPRATUS AND STEPLESS CONTROLLER TO BE USED THEREIN 2008/06/13 2008/09/03 久留米大学
4539 2005JP015395 WO 2006/025244 世界知的所有権機関(WIPO) GEL WITH LIQUID CRYSTAL STRUCTURE AND PROCESS FOR PRODUCING THE SAME 2008/06/06 2008/09/03 群馬大学
4540 2007JP052783 WO 2007/094435 世界知的所有権機関(WIPO) TEMPERATURE SENSOR 2008/06/06 2008/10/16 岡山大学
4541 2007JP067223 WO 2008/029804 世界知的所有権機関(WIPO) PERCHLORIC ACID ION TRAPPING AGENT 新技術説明会 2008/06/06 2008/10/16 静岡大学
4542 2006JP320964 WO 2007/046504 世界知的所有権機関(WIPO) STETHOSCOPE HEART SOUND SIGNAL PROCESSING METHOD AND STETHOSCOPE DEVICE 新技術説明会 2008/05/23 2008/10/16 山口TLO
4543 2004JP011568 WO 2005/015737 世界知的所有権機関(WIPO) SYSTEM ESTIMATION METHOD, PROGRAM, RECORDING MEDIUM, SYSTEM ESTIMATION DEVICE 新技術説明会 2008/04/25 2008/09/03 科学技術振興機構(JST)
4544 41567401 7039567 アメリカ合衆国 System identification method 新技術説明会 実績あり 2008/04/25 2018/07/23 科学技術振興機構(JST)
4545 2006JP317267 WO 2007/029601 世界知的所有権機関(WIPO) DEMULTIPLEXING CIRCUIT AND ITS DESIGNING METHOD 新技術説明会 2008/04/18 2008/10/16 電気通信大学
4546 2007JP054234 WO 2007/111086 世界知的所有権機関(WIPO) DISASTER RECOVERY DEVICE, DISASTER RECOVERY PROGRAM, ITS RECORDING MEDIUM, AND DISASTER RECOVERY SYSTEM 新技術説明会 2008/04/11 2008/10/16 東京電機大学
4547 2006JP325808 WO 2007/083489 世界知的所有権機関(WIPO) IN-PLANE EXPOSURE DEVICE AND IN-PLANE EXPOSURE METHOD 2008/04/11 2008/10/16 東京電機大学
4548 2007JP060075 WO 2007/135931 世界知的所有権機関(WIPO) COMMUNICATION NETWORK DESIGNING METHOD, PROGRAM, AND RECORDING MEDIUM 2008/03/28 2008/10/16 日大NUBIC
4549 2006JP306783 WO 2007/110966 世界知的所有権機関(WIPO) METHOD FOR PREPARATION OF HEPATOCYTE USING ES CELL 2008/03/28 2008/10/16 日大NUBIC
4550 2007JP050609 WO 2007/083670 世界知的所有権機関(WIPO) IMPLANTER 2008/03/28 2008/10/16 日大NUBIC
4551 2006JP317630 WO 2007/029727 世界知的所有権機関(WIPO) MULTI-VALUE MODULATION/DEMODULATION METHOD AND MULTI-VALUE MODULATION/DEMODULATION DEVICE 2008/03/28 2008/10/16 日大NUBIC
4552 2002JP002802 WO 2002/093615 世界知的所有権機関(WIPO) SCANNING ATOM PROBE AND ANALYSIS METHOD USING SCANNING ATOM PROBE 2008/01/18 2008/09/03 金沢工業大学
4553 31738905 7147707 アメリカ合衆国 Composite for building material, and method of manufacturing building material using the same 2008/01/18 2018/07/19 金沢工業大学
4554 33331803 6875981 アメリカ合衆国 Scanning atom probe and analysis method utilizing scanning atom probe 2008/01/18 2018/07/19 金沢工業大学
4555 2007JP056522 WO 2007/111342 世界知的所有権機関(WIPO) HIGH-STRENGTH HIGH-TOUGHNESS MAGNESIUM ALLOY AND METHOD FOR PRODUCING THE SAME 2008/01/18 2008/10/16 熊本大学
4556 2006JP323774 WO 2007/063873 世界知的所有権機関(WIPO) POLISHING METHOD AND POLISHING APPARATUS 2008/01/11 2008/10/16 埼玉大学
4557 2006JP317476 WO 2007/060782 世界知的所有権機関(WIPO) MULTIFREQUENCY MICROSTRIP ANTENNA 2008/01/11 2008/10/16 埼玉大学
4558 2006JP315575 WO 2007/029438 世界知的所有権機関(WIPO) NONCONTACT POWER FEEDER 2008/01/11 2008/10/16 埼玉大学
4559 2006JP301557 WO 2006/082807 世界知的所有権機関(WIPO) EQUIVALENT-CAPACITANCE TYPE ACTUATOR DRIVE DEVICE 2008/01/11 2008/09/03 埼玉大学
4560 2005JP019229 WO 2006/043604 世界知的所有権機関(WIPO) SURFACE ACOUSTIC WAVE EXCITATION DEVICE 2008/01/04 2008/09/03 埼玉大学
4561 2005JP022188 WO 2006/059717 世界知的所有権機関(WIPO) METHOD OF ANALYTE ORGANISM IDENTIFICATION, INTERNAL STANDARD DNA COMPOSITION FOR USE IN THIS METHOD AND PROCESS FOR PRODUCING THE SAME 2007/12/28 2008/09/03 埼玉大学
4562 2005JP008884 WO 2005/112948 世界知的所有権機関(WIPO) DRUG FOR REMEDY OR TREATMENT OF WOUND 新技術説明会 実績あり 2007/11/30 2008/09/03 鳥取大学
4563 2006JP317040 WO 2007/026728 世界知的所有権機関(WIPO) CERAMIC SOLID-PHASE FOAM AND PROCESS FOR PRODUCING THE SAME 新技術説明会 2007/11/16 2008/10/15 岡山大学
4564 2006JP315015 WO 2007/026490 世界知的所有権機関(WIPO) PALLADIUM COMPLEX, PROCESS FOR PRODUCING THE SAME, CATALYST, AND REACTION METHOD 2007/10/04 2008/10/15 富山大学
4565 2006JP304681 WO 2006/098225 世界知的所有権機関(WIPO) METHOD OF CONSTRUCTING PLANT HAVING NODULES WITH HIGH NITROGEN FIXATION ACTIVITY 2007/10/04 2008/10/15 鹿児島TLO
4566 2006JP302814 WO 2006/088123 世界知的所有権機関(WIPO) METHOD FOR PURIFYING BIODIESEL FUEL 実績あり 2007/10/04 2008/09/03 鹿児島TLO
4567 2006JP302133 WO 2006/085541 世界知的所有権機関(WIPO) METHOD FOR PRODUCING GEL AND HIGHLY VISCOUS SOLUTION OF TANNIN 実績あり 2007/10/04 2008/09/03 鹿児島TLO
4568 2005JP016349 WO 2006/028101 世界知的所有権機関(WIPO) SPINTRONICS MATERIAL AND TMR DEVICE 2007/10/04 2008/09/03 鹿児島TLO
4569 2006JP320078 WO 2007/043462 世界知的所有権機関(WIPO) BRAIN FUNCTION ANALYSIS METHOD AND BRAIN FUNCTION ANALYSIS PROGRAM 実績あり 2007/09/21 2008/10/15 東京電機大学
4570 2006JP315980 WO 2007/026533 世界知的所有権機関(WIPO) SOLUBLE TABLET CONTAINING NANOSILICON PARTICLES AND PROCESS FOR PRODUCTION THEREOF 2007/09/21 2008/10/15 東京電機大学
4571 2004JP010734 WO 2005/025740 世界知的所有権機関(WIPO) LIGHT- AND HEAT-RESPONSIVE ADSORBENTS AND PROCESS FOR RECOVERY OF SOLUTES 2007/09/21 2008/10/15 東京電機大学
4572 2006JP317067 WO 2007/026744 世界知的所有権機関(WIPO) METHOD FOR ESTIMATING CONNECTION RELATION AMONG WIDE-AREA DISTRIBUTED CAMERA AND PROGRAM FOR ESTIMATING CONNECTION RELATION 2007/09/14 2008/10/15 奈良先端科学技術大学院大学
4573 2006JP314148 WO 2007/015365 世界知的所有権機関(WIPO) INFORMATION PROCESSING DEVICE AND PROGRAM 2007/09/14 2008/10/15 奈良先端科学技術大学院大学
4574 2006JP313324 WO 2007/007594 世界知的所有権機関(WIPO) PROCESS FOR PREPARATION OF AQUEOUS SOLUTION CONTAINING CARBON NANOTUBE 2007/09/14 2008/10/15 奈良先端科学技術大学院大学
4575 2006JP311313 WO 2007/000879 世界知的所有権機関(WIPO) SOLID-STATE IMAGING ELEMENT AND SIGNAL READING METHOD THEREOF 2007/09/14 2008/10/15 奈良先端科学技術大学院大学
4576 2006JP310241 WO 2006/126535 世界知的所有権機関(WIPO) STATE ESTIMATION DEVICE, STATE ESTIMATION METHOD, STATE ESTIMATION PROGRAM, AND COMPUTER-READABLE RECORDING MEDIUM 2007/09/14 2008/10/15 奈良先端科学技術大学院大学
4577 2006JP306307 WO 2006/109565 世界知的所有権機関(WIPO) METHOD OF FABRICATING THIN-FILM TRANSISTOR 2007/09/14 2008/10/15 奈良先端科学技術大学院大学
4578 2006JP306306 WO 2006/104150 世界知的所有権機関(WIPO) SEMICONDUCTOR DEVICE PRODUCING METHOD AND SEMICONDUCTOR DEVICE 2007/09/14 2008/10/15 奈良先端科学技術大学院大学
4579 2006JP304049 WO 2006/093250 世界知的所有権機関(WIPO) MOVEMENT MEASURING DEVICE, MOVEMENT MEASURING SYSTEM, ON-VEHICLE EQUIPMENT, MOVEMENT MEASURING METHOD, MOVEMENT MEASURING PROGRAM, AND COMPUTER-READABLE RECORDING MEDIUM 実績あり 2007/09/14 2008/09/03 奈良先端科学技術大学院大学
4580 2005JP014346 WO 2006/092872 世界知的所有権機関(WIPO) DRIVING FORCE COMPUTING DEVICE, DRIVING FORCE COMPUTING METHOD, MUSCLE FORCE ASSISTING DEVICE, PROGRAM, AND COMPUTER-READABLE RECORDING MEDIUM 2007/09/14 2008/09/03 奈良先端科学技術大学院大学
4581 2005JP011652 WO 2006/077665 世界知的所有権機関(WIPO) PROJECTION DEVICE, CONTROL METHOD FOR PROJECTION DEVICE, COMPOSITE PROJECTION SYSTEM, CONTROL PROGRAM FOR PROJECTION DEVICE, AND RECORDING MEDIUM HAVING PROJECTION DEVICE CONTROL PROGRAM RECORDED THEREIN 2007/09/14 2008/09/03 奈良先端科学技術大学院大学
4582 2005JP024098 WO 2006/075528 世界知的所有権機関(WIPO) THREE-DIMENSIONAL OBJECT MEASURING DEVICE 2007/09/14 2008/09/03 奈良先端科学技術大学院大学
4583 2005JP023356 WO 2006/068133 世界知的所有権機関(WIPO) METHOD OF SUPPRESSING EXPRESSION OF NFAT2 2007/09/14 2008/09/03 奈良先端科学技術大学院大学
4584 2005JP015181 WO 2006/061926 世界知的所有権機関(WIPO) PROGRAM DEVELOPMENT SUPPORT DEVICE FOR COMPUTER SYSTEM INCLUDING QUANTUM COMPUTER, PROGRAM DEVELOPMENT SUPPORT PROGRAM, AND SIMULATION DEVICE 2007/09/14 2008/09/03 奈良先端科学技術大学院大学
4585 2005JP018540 WO 2006/054402 世界知的所有権機関(WIPO) COMPOSITION CONTAINING SEMICONDUCTOR ULTRAFINE PARTICLE AND PROCESS FOR PRODUCING THE SAME 2007/09/14 2008/09/03 奈良先端科学技術大学院大学
4586 2005JP011075 WO 2006/030570 世界知的所有権機関(WIPO) TACTILE SENSOR AND USE OF THE SAME 2007/09/14 2008/09/03 奈良先端科学技術大学院大学
4587 2004JP017865 WO 2005/054248 世界知的所有権機関(WIPO) PORPHYRIN/PHTHALOCYANINE DIMER AND TETRAMER DIRECTLY BONDED AT π SYSTEM AND PROCESSES FOR PRODUCING THESE 2007/09/14 2008/09/03 奈良先端科学技術大学院大学
4588 2007JP050102 WO 2007/080857 世界知的所有権機関(WIPO) GAS NUCLEAR MAGNETIC RESONANCE APPARATUS 新技術説明会 2007/09/14 2008/10/15 神戸大学
4589 2006JP302909 WO 2007/004339 世界知的所有権機関(WIPO) METHOD AND DEVICE FOR IDENTIFYING BRAGG GRATING STRUCTURE AND MANUFACTURING METHOD THEREOF 2007/09/07 2008/10/15 山梨大学
4590 2006JP302785 WO 2007/004338 世界知的所有権機関(WIPO) METHOD AND DEVICE FOR EXTRACTING CLOCK SIGNAL FROM OPTICAL SIGNAL 2007/09/07 2008/10/15 山梨大学
4591 2007JP051309 WO 2007/086526 世界知的所有権機関(WIPO) GENE POLYMORPHISM AND USE THEREOF 2007/09/07 2008/10/15 金沢大TLO
4592 2006JP319103 WO 2007/037241 世界知的所有権機関(WIPO) SHEAR MEASURING METHOD AND ITS DEVICE 新技術説明会 2007/09/07 2008/10/15 科学技術振興機構(JST)
4593 2006JP310367 WO 2006126595 世界知的所有権機関(WIPO) THREE-DIMENSIONAL STRUCTURE OF FUNCTIONAL MATERIAL 新技術説明会 2007/09/07 2019/04/25 科学技術振興機構(JST)
4594 2005JP006199 WO 2005/091377 世界知的所有権機関(WIPO) SUBSTRATE WITH ORGANIC THIN FILM, TRANSISTOR USING SAME, AND METHODS FOR PRODUCING THOSE 新技術説明会 2007/09/07 2008/09/03 科学技術振興機構(JST)
4595 2005JP009495 WO 2006/027875 世界知的所有権機関(WIPO) FRONT WHEEL STEERING CONTROL DEVICE 2007/08/31 2008/09/03 東京農工大学
4596 2005JP015953 WO 2006/022425 世界知的所有権機関(WIPO) APPARATUS FOR MEASURING ELECTRICAL CHARACTERISTICS OF SEMICONDUCTOR 2007/08/31 2008/09/03 東京農工大学
4597 2005JP015309 WO 2006/019181 世界知的所有権機関(WIPO) SHAPE MEASUREMENT METHOD, SHAPE MEASUREMENT DEVICE, AND FREQUENCY COMB LIGHT GENERATION DEVICE 2007/08/31 2008/09/03 東京農工大学
4598 2005JP014014 WO 2006/013807 世界知的所有権機関(WIPO) ARABINOGALACTAN PROTEIN HAVING ACTIVITY OF IMPROVING TOLERANCE TO HEAT OR MOISTURE STRESS 新技術説明会 2007/08/31 2008/09/03 東京農工大学
4599 2006JP307272 WO 2006/107093 世界知的所有権機関(WIPO) FIBRINOLYTIC AGENT, METHOD OF PRODUCING THE SAME AND METHOD OF USING CUCURBITACEOUS FRUIT 新技術説明会 実績あり 2007/08/31 2008/10/15 鹿児島TLO
4600 2006JP312833 WO 2007/001007 世界知的所有権機関(WIPO) POWER CONVERSION CONTROL DEVICE, POWER CONVERSION CONTROL METHOD, AND POWER CONVERSION CONTROL PROGRAM 2007/08/03 2008/10/15 四国TLO

(46/47 page)

PAGE TOP